This demonstration page uses our WeatherBlox Daily Observations layout. Learn more.

Left ArrowRight Arrow

40.97296, -117.73568

Hourly Observations for May 31, 2022

Temp ( °F °C ) Dew Point ( °F °C ) Humidity (%) Winds ( mph kmh ) Pressure ( in mb ) Visibility ( mi km ) Precip ( " mm )
12:56 am 00:56 Clear 45 7.2 33 0.6 63 63 NNE 7 11 29.98 1015 10 16 0.00 0.00
1:56 am 01:56 Clear 42 5.6 32 0 68 68 N 6 9 29.99 1016 10 16 0.00 0.00
2:56 am 02:56 Clear 39 3.9 31 -0.6 73 73 N 7 11 30.01 1016 10 16 0.00 0.00
3:56 am 03:56 Clear 33 0.6 29 -1.7 85 85 WNW 9 15 30.03 1017 10 16 0.00 0.00
4:56 am 04:56 Clear 33 0.6 30 -1.1 89 89 W 8 13 30.04 1017 10 16 0.00 0.00
5:56 am 05:56 Sunny 33 0.6 31 -0.6 92 92 W 6 9 30.05 1018 10 16 0.00 0.00
6:56 am 06:56 Sunny 43 6.1 35 1.7 74 74 WNW 3 6 30.04 1017 10 16 0.00 0.00
7:56 am 07:56 Sunny 49 9.4 35 1.7 59 59 NNE 9 15 30.06 1018 10 16 0.00 0.00
8:56 am 08:56 Sunny 52 11.1 35 1.7 53 53 NNE 12 19 30.07 1018 10 16 0.00 0.00
9:56 am 09:56 Sunny 56 13.3 34 1.1 44 44 NNE 10 17 30.06 1018 10 16 0.00 0.00
10:56 am 10:56 Sunny 59 15 31 -0.6 35 35 N 5 7 30.06 1018 10 16 0.00 0.00
11:56 am 11:56 Sunny 61 16.1 31 -0.6 32 32 NE 7 11 30.06 1018 10 16 0.00 0.00
12:56 pm 12:56 Sunny 63 17.2 32 0 31 31 E 8 13 30.04 1017 10 16 0.00 0.00
1:56 pm 13:56 Sunny 64 17.8 30 -1.1 28 28 VRB 5 7 30.04 1017 10 16 0.00 0.00
2:56 pm 14:56 Sunny 68 20 31 -0.6 25 25 NNE 9 15 30.03 1017 10 16 0.00 0.00
3:56 pm 15:56 Mostly Sunny 68 20 30 -1.1 24 24 undefined N/A 30.03 1017 10 16 0.00 0.00
4:56 pm 16:56 Sunny 69 20.6 29 -1.7 22 22 NNE 7 11 30.03 1017 10 16 0.00 0.00
5:56 pm 17:56 Sunny 69 20.6 28 -2.2 22 22 NNE 13 20 30.03 1017 10 16 0.00 0.00
6:56 pm 18:56 Sunny 67 19.4 29 -1.7 24 24 NE 6 9 30.00 1016 10 16 0.00 0.00
7:56 pm 19:56 Sunny 63 17.2 30 -1.1 29 29 N 8 13 30.01 1016 10 16 0.00 0.00
8:56 pm 20:56 Clear 59 15 30 -1.1 33 33 NE 8 13 30.02 1017 10 16 0.00 0.00
9:56 pm 21:56 Clear 54 12.2 30 -1.1 40 40 NNE 6 9 30.04 1017 10 16 0.00 0.00
10:56 pm 22:56 Clear 55 12.8 30 -1.1 38 38 NE 12 19 30.04 1017 10 16 0.00 0.00
11:56 pm 23:56 Clear 55 12.8 30 -1.1 38 38 ENE 10 17 30.04 1017 10 16 0.00 0.00

Powered by AerisWeather